VIR209 RKSI-EGLL

Flight info

Callsign VIR209
Flight time N/A
Altitude 21700
Route NOPIK Y697 AGAVO/K0843S0660 A591 IKEKA W4 FZ/K0922S0980 W4 HCH W200 DOVIV/K0913S1040 DCT VYK B215 LEBOM W104 VEXEB W47 IDSOT W48 DKO W66 NUKTI B215 DUBUV/K0913S1100 B215 FKG A368 SARIN/K0907F360 N161 GASBI/N0495F380 N161 LEYLA N644 TETRO M10 SARPI UN37 TBN UM11 CRM UM688 EKSUK UL852 NEGEM T746 ARGES DCT BUDOP DCT PATAK DCT ODNEM/N0482F400 DCT RAPET DCT MASEK DCT TIVUN DCT TORNU DCT BREDA DCT ABNED L980 LOGAN
Aircraft B78X/H-SDE1E2E3FGHIJ2J3J4J5M1RWXY/LB1D1

Departure

Time 2026-05-05 01:12
Airport Incheon International Airport (RKSI)

Arrival

Time N/A
Airport London Heathrow Airport (EGLL)
Time Latitude Longitude Altitude Speed Heading
2026-05-05 00:12 37.46674 126.44218 38 ft 0 kts 256°
2026-05-05 00:32 37.46676 126.44229 37 ft 2 kts 256°
2026-05-05 00:32 37.46680 126.44250 35 ft 2 kts 262°
2026-05-05 00:32 37.46683 126.44268 36 ft 2 kts 263°
2026-05-05 00:33 37.46683 126.44289 35 ft 2 kts 281°
2026-05-05 00:33 37.46679 126.44309 34 ft 2 kts 285°
2026-05-05 00:33 37.46674 126.44329 37 ft 2 kts 286°
2026-05-05 00:33 37.46667 126.44352 36 ft 5 kts 298°
2026-05-05 00:34 37.46657 126.44374 38 ft 3 kts 301°
2026-05-05 00:34 37.46645 126.44393 37 ft 3 kts 316°
2026-05-05 00:34 37.46630 126.44410 36 ft 3 kts 329°
2026-05-05 00:34 37.46623 126.44416 34 ft 0 kts 325°
2026-05-05 00:48 37.46627 126.44412 38 ft 1 kts 324°
2026-05-05 00:49 37.46639 126.44401 38 ft 3 kts 324°
2026-05-05 00:49 37.46664 126.44379 38 ft 6 kts 324°
2026-05-05 00:49 37.46707 126.44341 38 ft 9 kts 324°
2026-05-05 00:49 37.46764 126.44289 38 ft 12 kts 324°
2026-05-05 00:50 37.46829 126.44221 38 ft 13 kts 315°
2026-05-05 00:50 37.46895 126.44134 38 ft 15 kts 313°
2026-05-05 00:50 37.46966 126.44040 38 ft 15 kts 313°
2026-05-05 00:50 37.47024 126.44009 38 ft 4 kts 20°
2026-05-05 00:51 37.47044 126.44026 38 ft 3 kts 42°
2026-05-05 00:51 37.47063 126.44050 38 ft 5 kts 48°
2026-05-05 00:51 37.47086 126.44089 38 ft 7 kts 53°
2026-05-05 00:51 37.47119 126.44145 38 ft 9 kts 53°
2026-05-05 00:52 37.47158 126.44218 38 ft 11 kts 56°
2026-05-05 00:52 37.47205 126.44304 38 ft 13 kts 54°
2026-05-05 00:52 37.47261 126.44403 38 ft 15 kts 54°
2026-05-05 00:52 37.47323 126.44514 38 ft 16 kts 55°
2026-05-05 00:53 37.47400 126.44610 38 ft 12 kts 13°
2026-05-05 00:53 37.47454 126.44586 38 ft 8 kts 328°
2026-05-05 00:53 37.47505 126.44543 38 ft 10 kts 324°
2026-05-05 00:53 37.47572 126.44482 38 ft 13 kts 324°
2026-05-05 00:54 37.47657 126.44406 38 ft 16 kts 324°
2026-05-05 00:54 37.47748 126.44324 38 ft 16 kts 327°
2026-05-05 00:54 37.47845 126.44240 38 ft 18 kts 325°
2026-05-05 00:54 37.47958 126.44140 38 ft 21 kts 324°
2026-05-05 00:55 37.48077 126.44033 38 ft 21 kts 324°
2026-05-05 00:55 37.48190 126.43933 38 ft 19 kts 325°
2026-05-05 00:55 37.48267 126.43880 38 ft 8 kts 352°
2026-05-05 00:55 37.48299 126.43894 38 ft 3 kts 36°
2026-05-05 00:56 37.48315 126.43910 38 ft 0 kts 37°
2026-05-05 01:06 37.48319 126.43914 38 ft 2 kts 38°
2026-05-05 01:07 37.48325 126.43928 38 ft 3 kts 55°
2026-05-05 01:07 37.48348 126.43967 38 ft 8 kts 55°
2026-05-05 01:07 37.48368 126.44020 38 ft 2 kts 91°
2026-05-05 01:07 37.48364 126.44038 38 ft 1 kts 114°
2026-05-05 01:08 37.48359 126.44050 38 ft 1 kts 122°
2026-05-05 01:08 37.48352 126.44055 38 ft 2 kts 140°
2026-05-05 01:08 37.48346 126.44059 38 ft 0 kts 144°
2026-05-05 01:11 37.48341 126.44065 38 ft 8 kts 144°
2026-05-05 01:11 37.48249 126.44146 38 ft 41 kts 145°
2026-05-05 01:11 37.47865 126.44488 38 ft 93 kts 144°
2026-05-05 01:12 37.47210 126.45072 38 ft 138 kts 144°
2026-05-05 01:12 37.46311 126.45868 41 ft 175 kts 145°
2026-05-05 01:12 37.45265 126.46769 404 ft 181 kts 148°
2026-05-05 01:12 37.44232 126.47685 1087 ft 179 kts 131°
2026-05-05 01:13 37.43557 126.49079 1288 ft 201 kts 125°
2026-05-05 01:13 37.42733 126.50488 1684 ft 204 kts 133°
2026-05-05 01:13 37.41772 126.51880 2011 ft 216 kts 135°
2026-05-05 01:13 37.40724 126.53352 2310 ft 234 kts 134°
2026-05-05 01:14 37.39621 126.54936 2652 ft 249 kts 134°
2026-05-05 01:14 37.38430 126.56625 3196 ft 258 kts 134°
2026-05-05 01:14 37.37239 126.58299 4012 ft 257 kts 142°
2026-05-05 01:14 37.35616 126.59175 4623 ft 255 kts 172°
2026-05-05 01:15 37.33948 126.59793 5417 ft 257 kts 160°
2026-05-05 01:15 37.32254 126.60651 6061 ft 263 kts 162°
2026-05-05 01:15 37.30509 126.61449 6673 ft 270 kts 163°
2026-05-05 01:15 37.28710 126.62171 7311 ft 273 kts 171°
2026-05-05 01:16 37.26835 126.62133 7922 ft 273 kts 196°
2026-05-05 01:16 37.25142 126.61124 8601 ft 272 kts 216°
2026-05-05 01:16 37.23585 126.59788 9226 ft 277 kts 216°
2026-05-05 01:16 37.21974 126.58345 9673 ft 284 kts 216°
2026-05-05 01:17 37.20376 126.56917 9954 ft 283 kts 215°
2026-05-05 01:17 37.18739 126.55473 10010 ft 287 kts 215°
2026-05-05 01:17 37.17120 126.54048 10005 ft 285 kts 215°
2026-05-05 01:17 37.15499 126.52619 10013 ft 284 kts 216°
2026-05-05 01:18 37.13880 126.51192 10006 ft 285 kts 216°
2026-05-05 01:18 37.12290 126.49774 10005 ft 284 kts 219°
2026-05-05 01:18 37.11117 126.47799 9983 ft 294 kts 251°
2026-05-05 01:18 37.10748 126.45221 10192 ft 312 kts 276°
2026-05-05 01:19 37.11213 126.42485 10405 ft 332 kts 285°
2026-05-05 01:19 37.11943 126.39647 10595 ft 351 kts 288°
2026-05-05 01:19 37.12738 126.36689 10953 ft 363 kts 286°
2026-05-05 01:19 37.13475 126.33639 11478 ft 369 kts 285°
2026-05-05 01:20 37.14202 126.30524 12022 ft 374 kts 285°
2026-05-05 01:20 37.14965 126.27377 12602 ft 379 kts 286°
2026-05-05 01:20 37.15749 126.24198 13162 ft 384 kts 286°
2026-05-05 01:20 37.16534 126.20971 13742 ft 389 kts 286°
2026-05-05 01:21 37.17319 126.17702 14274 ft 393 kts 286°
2026-05-05 01:21 37.18115 126.14403 14803 ft 397 kts 286°
2026-05-05 01:21 37.18921 126.11071 15387 ft 401 kts 286°
2026-05-05 01:21 37.19731 126.07711 16029 ft 404 kts 286°
2026-05-05 01:22 37.20547 126.04319 16674 ft 408 kts 286°
2026-05-05 01:22 37.21370 126.00891 17314 ft 412 kts 286°
2026-05-05 01:22 37.22200 125.97434 17925 ft 416 kts 287°
2026-05-05 01:22 37.23026 125.93991 18517 ft 419 kts 287°
2026-05-05 01:23 37.23867 125.90474 19065 ft 422 kts 287°
2026-05-05 01:23 37.24711 125.86943 19618 ft 424 kts 287°
2026-05-05 01:23 37.25561 125.83377 20151 ft 427 kts 287°
2026-05-05 01:23 37.26414 125.79796 20704 ft 429 kts 287°
2026-05-05 01:24 37.27270 125.76200 21226 ft 431 kts 287°
2026-05-05 01:24 37.28131 125.72572 21737 ft 433 kts 287°
2026-05-05 01:24 37.28995 125.68928 22275 ft 436 kts 287°
2026-05-05 01:24 37.29863 125.65264 22839 ft 439 kts 287°
2026-05-05 01:25 37.30734 125.61581 23380 ft 441 kts 287°
2026-05-05 01:25 37.31609 125.57873 23867 ft 444 kts 287°
2026-05-05 01:25 37.32486 125.54151 24287 ft 446 kts 287°
2026-05-05 01:25 37.33359 125.50443 24702 ft 449 kts 287°
2026-05-05 01:26 37.34245 125.46672 25111 ft 451 kts 287°
2026-05-05 01:26 37.35135 125.42874 25514 ft 453 kts 287°
2026-05-05 01:26 37.36029 125.39058 25921 ft 456 kts 287°
2026-05-05 01:26 37.36924 125.35232 26311 ft 458 kts 287°
2026-05-05 01:27 37.37822 125.31386 26698 ft 460 kts 287°
2026-05-05 01:27 37.38724 125.27515 27074 ft 462 kts 287°
2026-05-05 01:27 37.39493 125.23584 27452 ft 464 kts 277°
2026-05-05 01:27 37.39644 125.19526 27854 ft 466 kts 269°
2026-05-05 01:28 37.39572 125.15429 28183 ft 469 kts 269°
2026-05-05 01:28 37.39495 125.11324 28529 ft 471 kts 269°
2026-05-05 01:28 37.39418 125.07189 28880 ft 473 kts 269°
2026-05-05 01:28 37.39346 125.03050 29206 ft 476 kts 269°
2026-05-05 01:29 37.39270 124.98869 29542 ft 478 kts 269°
2026-05-05 01:29 37.39191 124.94739 29858 ft 480 kts 269°
2026-05-05 01:29 37.39109 124.90531 30171 ft 482 kts 269°
2026-05-05 01:29 37.39026 124.86298 30447 ft 484 kts 269°
2026-05-05 01:30 37.38942 124.82057 30711 ft 486 kts 269°
2026-05-05 01:30 37.38855 124.77811 30966 ft 488 kts 269°
2026-05-05 01:30 37.38766 124.73539 31218 ft 489 kts 269°
2026-05-05 01:30 37.38675 124.69249 31472 ft 491 kts 269°
2026-05-05 01:31 37.38582 124.64944 31721 ft 493 kts 269°
2026-05-05 01:31 37.38488 124.60635 32069 ft 492 kts 269°
2026-05-05 01:31 37.38391 124.56322 32205 ft 494 kts 269°
2026-05-05 01:31 37.38295 124.52087 32205 ft 487 kts 269°
2026-05-05 01:32 37.37750 124.43581 32243 ft 490 kts 257°
2026-05-05 01:32 37.36676 124.39517 32244 ft 492 kts 246°
2026-05-05 01:32 37.35023 124.35739 32222 ft 493 kts 239°
2026-05-05 01:33 37.31271 124.28526 32217 ft 493 kts 238°
2026-05-05 01:33 37.27591 124.21258 32213 ft 493 kts 239°
2026-05-05 01:34 37.23877 124.14016 32210 ft 493 kts 238°
2026-05-05 01:34 37.20162 124.06774 32208 ft 493 kts 238°
2026-05-05 01:35 37.16448 123.99538 32202 ft 493 kts 238°
2026-05-05 01:35 37.12716 123.92301 32210 ft 493 kts 238°
2026-05-05 01:36 37.09020 123.85132 32205 ft 493 kts 238°
2026-05-05 01:36 37.05284 123.77917 32208 ft 493 kts 238°
2026-05-05 01:37 37.01551 123.70710 32194 ft 493 kts 238°
2026-05-05 01:37 36.97815 123.63522 32202 ft 493 kts 238°
2026-05-05 01:38 36.94074 123.56333 32202 ft 493 kts 238°
2026-05-05 01:38 36.90333 123.49166 32189 ft 492 kts 238°
2026-05-05 01:39 36.84222 123.32197 32271 ft 489 kts 266°
2026-05-05 01:39 36.87762 123.16218 32197 ft 487 kts 300°
2026-05-05 01:39 36.93388 123.01140 32195 ft 487 kts 287°
2026-05-05 01:40 37.00393 122.76402 32185 ft 486 kts 290°
2026-05-05 01:40 37.09613 122.44505 32176 ft 487 kts 290°
2026-05-05 01:41 37.18741 122.12454 32159 ft 488 kts 290°
2026-05-05 01:41 37.27786 121.80306 32143 ft 490 kts 290°
2026-05-05 01:42 37.36779 121.47952 32120 ft 490 kts 290°
2026-05-05 01:42 37.45873 121.15567 32119 ft 489 kts 298°
2026-05-05 01:43 37.58358 120.85043 32086 ft 489 kts 298°
2026-05-05 01:43 37.70659 120.54416 32063 ft 489 kts 298°
2026-05-05 01:44 37.82826 120.23813 32042 ft 490 kts 299°
2026-05-05 01:44 37.95006 119.92875 32024 ft 491 kts 299°
2026-05-05 01:45 38.07116 119.61805 32002 ft 490 kts 299°
2026-05-05 01:45 38.19106 119.30731 31989 ft 489 kts 298°
2026-05-05 01:46 38.31025 118.99526 31971 ft 489 kts 298°
2026-05-05 01:46 38.42858 118.68224 31959 ft 489 kts 297°
2026-05-05 01:47 38.54565 118.36939 31946 ft 488 kts 297°
2026-05-05 01:47 38.66091 118.05813 31940 ft 486 kts 297°
2026-05-05 01:48 38.77585 117.74450 31930 ft 485 kts 296°
2026-05-05 01:48 38.88957 117.43085 31921 ft 483 kts 296°
2026-05-05 01:49 39.00177 117.11815 31920 ft 480 kts 296°
2026-05-05 01:49 39.11264 116.80588 31914 ft 478 kts 295°
2026-05-05 01:50 39.17074 116.48157 31962 ft 486 kts 253°
2026-05-05 01:50 39.07652 116.15387 31917 ft 487 kts 252°
2026-05-05 01:51 38.98299 115.82882 31910 ft 487 kts 252°
2026-05-05 01:51 38.88820 115.50326 31894 ft 487 kts 252°
2026-05-05 01:52 38.79230 115.17790 31887 ft 487 kts 251°
2026-05-05 01:52 38.69553 114.85353 31883 ft 487 kts 251°
2026-05-05 01:53 38.59784 114.52996 31881 ft 487 kts 251°
2026-05-05 01:53 38.48469 114.21665 31896 ft 489 kts 248°
2026-05-05 01:54 38.36932 113.90161 31896 ft 490 kts 247°
2026-05-05 01:54 38.25151 113.58741 31914 ft 492 kts 246°
2026-05-05 01:55 38.13296 113.27358 31953 ft 492 kts 248°
2026-05-05 01:55 38.04308 113.03369 32372 ft 493 kts 247°
2026-05-05 01:56 38.02835 112.99462 32807 ft 491 kts 248°
2026-05-05 01:56 38.01365 112.95554 33234 ft 489 kts 248°
2026-05-05 01:56 37.99901 112.91667 33608 ft 489 kts 248°
2026-05-05 01:56 37.98911 112.89047 33857 ft 488 kts 248°
2026-05-05 01:57 37.97438 112.85152 33970 ft 492 kts 248°
2026-05-05 01:57 37.95966 112.81265 33969 ft 485 kts 248°
2026-05-05 01:57 37.81551 112.44966 33973 ft 487 kts 246°
2026-05-05 01:58 37.77945 112.28937 34025 ft 472 kts 278°
2026-05-05 01:58 37.81081 112.13055 33985 ft 465 kts 301°
2026-05-05 01:58 37.92838 111.83946 34085 ft 467 kts 297°
2026-05-05 01:59 37.98025 111.70322 35253 ft 462 kts 298°